Location: Melbourne
(37.8666°S, 145.1333°E)
Time: 17:06:09
(UTC+10:00)

Amateur Radio Satellites - All Passes

Search period start: 30 April 2017 16:36
Search period end: 01 May 2017 16:36
Location: Melbourne, 37.8666°S, 145.1333°E

Satellite Date Start Highest point End Downlink Frequencies (MHz)
Time Altitude Azimuth
YUBILEINY 30 Apr 16:38:47 16:47:22 54° 258° (WSW) 16:56:04 435.215
CUBESAT XI-V 30 Apr 16:43:43 16:48:12 45° 278° (W) 16:52:43 437.345
DOVE 4 30 Apr 16:55:38 16:58:06 13° 89° (E) 17:00:36 437.250
ITAMSAT 1 30 Apr 17:03:51 17:07:33 20° 244° (WSW) 17:11:14 435.822/435.867
KKS-1 30 Apr 17:06:11 17:09:43 23° 275° (W) 17:13:19 437.445
STARS 30 Apr 17:26:58 17:30:52 31° 277° (W) 17:34:51 437.465
XW-2D 30 Apr 17:37:14 17:39:51 17° 86° (E) 17:42:26 145.860 - 145.880
SO-50 30 Apr 17:42:55 17:47:25 49° 235° (SW) 17:52:04 436.795
XW-2B 30 Apr 17:44:02 17:46:57 20° 86° (E) 17:49:48 145.730 - 145.750
KAITUO 1B 30 Apr 17:45:01 17:47:27 16° 87° (E) 17:49:51 145.475/437.950
Tancredo 1 30 Apr 17:45:19 17:48:06 29° 47° (NE) 17:50:55 437.200
AO-7 30 Apr 17:50:46 17:57:13 25° 236° (SW) 18:03:38 .
RS-15 30 Apr 17:51:52 18:02:31 53° 69° (ENE) 18:12:54 29.354- 29.394
XW-2C 30 Apr 17:55:44 17:59:07 29° 84° (E) 18:02:28 145.795 - 145.815
LilacSat-2 30 Apr 17:58:55 18:02:27 33° 83° (E) 18:05:55 437.200
XW-2F 30 Apr 18:18:06 18:21:52 55° 80° (E) 18:25:34 145.980 - 146.000
NUDT-PHONESAT 30 Apr 18:18:09 18:21:47 43° 81° (E) 18:25:21 437.300
DOVE 4 30 Apr 18:31:07 18:36:05 65° 256° (WSW) 18:41:15 437.250
ISS 30 Apr 18:35:07 18:38:27 80° 43° (NE) 18:41:49 437.550
CUTE-I 30 Apr 18:36:58 18:42:26 73° 77° (ENE) 18:47:49 437.470
STRAND 1 30 Apr 18:48:14 18:53:22 72° 106° (ESE) 18:58:36 437.568
M-CUBED/EXP-1 PRIME 30 Apr 18:49:54 18:53:11 75° 108° (ESE) 18:56:31 437.505
HO-68 30 Apr 18:51:33 18:57:27 26° 85° (E) 19:03:15 435.675
XW-2A 30 Apr 19:02:33 19:05:13 20° 85° (E) 19:07:49 145.665 - 145.685
XW-2D 30 Apr 19:10:44 19:14:03 28° 251° (WSW) 19:17:19 145.860 - 145.880
XW-2B 30 Apr 19:17:56 19:21:04 24° 250° (WSW) 19:24:08 145.730 - 145.750
KAITUO 1B 30 Apr 19:18:11 19:21:29 28° 252° (WSW) 19:24:44 145.475/437.950
Tancredo 1 30 Apr 19:21:14 19:23:58 26° 211° (SSW) 19:26:46 437.200
XW-2C 30 Apr 19:30:30 19:33:04 17° 248° (WSW) 19:35:36 145.795 - 145.815
LilacSat-2 30 Apr 19:34:07 19:36:24 15° 247° (WSW) 19:38:41 437.200
AAUSAT CUBESAT 2 30 Apr 19:34:56 19:37:28 16° 87° (E) 19:39:58 437.432
UWE-3 30 Apr 19:48:33 19:52:13 23° 86° (E) 19:55:47 435.000/436.395/437.385
NUDT-PHONESAT 30 Apr 19:53:53 19:55:15 12° 246° (WSW) 19:56:38 437.300
CUTE 1.7 + AOD 2 30 Apr 20:00:04 20:04:20 73° 256° (WSW) 20:08:33 437.475
RS-15 30 Apr 20:04:34 20:14:59 45° 227° (SW) 20:25:19 29.354- 29.394
CUBEBUG 2 30 Apr 20:08:59 20:13:46 65° 79° (E) 20:18:21 437.445
SEEDS 30 Apr 20:12:40 20:16:55 82° 257° (WSW) 20:21:05 437.485
ISS 30 Apr 20:13:04 20:15:19 17° 203° (SSW) 20:17:35 437.550
TIGRISAT 30 Apr 20:14:04 20:14:21 10° 119° (ESE) 20:14:39 435.000
CUTE-I 30 Apr 20:18:56 20:21:48 15° 241° (WSW) 20:24:39 437.470
O/OREOS (USA 219) 30 Apr 20:23:28 20:26:56 22° 79° (ENE) 20:30:25 437.305
PRISM 30 Apr 20:25:36 20:28:40 21° 112° (ESE) 20:31:46 437.425
FO-29 30 Apr 20:29:47 20:35:08 24° 120° (ESE) 20:40:53 435.910
STRAND 1 30 Apr 20:31:06 20:33:03 12° 270° (W) 20:35:00 437.568
UNISAT 6 30 Apr 20:33:17 20:36:28 18° 114° (ESE) 20:39:42 437.425
ZACube-1 30 Apr 20:34:47 20:39:05 41° 83° (E) 20:43:13 437.345
XW-2A 30 Apr 20:35:14 20:37:50 20° 250° (WSW) 20:40:23 145.665 - 145.685
HO-68 30 Apr 20:38:26 20:45:26 54° 249° (WSW) 20:52:21 435.675
AO-73 30 Apr 20:39:20 20:43:37 41° 82° (E) 20:47:45 145.935
Oscar 11 30 Apr 20:50:06 20:54:18 43° 81° (E) 20:58:25 .
OBJECT BX 30 Apr 21:04:20 21:04:49 10° 89° (E) 21:05:18 145.990 - 145.960
AAUSAT CUBESAT 2 30 Apr 21:09:11 21:13:03 37° 252° (WSW) 21:16:52 437.432
DELFI C3 30 Apr 21:18:24 21:21:40 24° 85° (E) 21:24:55 145.870
UWE-3 30 Apr 21:24:32 21:28:40 32° 250° (WSW) 21:32:40 435.000/436.395/437.385
PCSat 30 Apr 21:32:05 21:36:35 26° 129° (SE) 21:41:04 145.827
TIGRISAT 30 Apr 21:45:38 21:50:15 83° 281° (W) 21:55:01 435.000
AO-85 30 Apr 21:46:01 21:46:41 10° 77° (ENE) 21:47:22 145.980
CUBEBUG 2 30 Apr 21:47:35 21:49:43 13° 243° (WSW) 21:51:51 437.445
PRISM 30 Apr 22:00:12 22:03:45 28° 277° (W) 22:07:20 437.425
O/OREOS (USA 219) 30 Apr 22:02:06 22:06:07 31° 243° (WSW) 22:10:11 437.305
UNISAT 6 30 Apr 22:08:24 22:12:47 43° 278° (W) 22:17:18 437.425
ZACube-1 30 Apr 22:11:59 22:14:59 18° 246° (WSW) 22:17:54 437.345
FO-29 30 Apr 22:12:43 22:19:21 65° 280° (W) 22:26:53 435.910
AO-73 30 Apr 22:16:32 22:19:28 17° 246° (WSW) 22:22:20 145.935
RS-15 30 Apr 22:24:44 22:31:17 17° 196° (SSW) 22:37:53 29.354- 29.394
DUCHIFAT 1 30 Apr 22:27:17 22:30:03 17° 114° (ESE) 22:32:52 145.980
Oscar 11 30 Apr 22:27:26 22:30:01 16° 246° (WSW) 22:32:36 .
EO-79 30 Apr 22:29:26 22:32:45 22° 112° (ESE) 22:36:05 145.935-145.965
AIST 2D 30 Apr 22:32:01 22:35:23 39° 106° (ESE) 22:38:48 435.315
OBJECT BX 30 Apr 22:35:10 22:38:44 44° 254° (WSW) 22:42:15 145.990 - 145.960
ESTCUBE 1 30 Apr 22:50:37 22:53:39 17° 87° (E) 22:56:39 437.505/2401.250
DELFI C3 30 Apr 22:53:10 22:56:19 23° 250° (WSW) 22:59:28 145.870
POLYITAN 1 30 Apr 23:08:48 23:13:02 62° 105° (ESE) 23:17:22 437.675
BEESAT 3 30 Apr 23:11:31 23:12:34 11° 72° (ENE) 23:13:38 437.485
BUGSAT 1 30 Apr 23:12:55 23:15:39 17° 114° (ESE) 23:18:25 437.445
PCSat 30 Apr 23:15:00 23:20:08 44° 291° (WNW) 23:25:15 145.827
QB50P2 30 Apr 23:15:36 23:19:53 82° 102° (ESE) 23:24:15 145.880/145.840
AO-85 30 Apr 23:21:21 23:26:15 86° 242° (WSW) 23:31:33 145.980
LO-87 30 Apr 23:25:29 23:29:13 88° 259° (W) 23:32:54 145.935 - 145.965
ISS 30 Apr 23:29:24 23:30:47 12° 163° (SSE) 23:32:10 437.550
Oscar 19 30 Apr 23:29:48 23:31:18 11° 120° (ESE) 23:32:48 437.125/150
NANOSAT C BR1 30 Apr 23:33:28 23:37:43 74° 283° (WNW) 23:42:05 145.865
DUCHIFAT 1 01 May 00:01:24 00:05:23 38° 278° (W) 00:09:26 145.980
Gurwin Techsat 1B 01 May 00:02:02 00:04:48 14° 119° (ESE) 00:07:35 435.225
EO-79 01 May 00:04:34 00:08:18 29° 276° (W) 00:12:07 145.935-145.965
AIST 2D 01 May 00:07:47 00:08:47 11° 271° (W) 00:09:46 435.315
Tancredo 1 01 May 00:12:17 00:14:51 22° 152° (SSE) 00:17:25 437.200
VELOX 1 01 May 00:21:35 00:25:56 47° 80° (E) 00:30:14 145.980
UKube-1 01 May 00:21:46 00:22:42 11° 89° (E) 00:23:38 .
ESTCUBE 1 01 May 00:26:20 00:30:35 39° 252° (WSW) 00:34:47 437.505/2401.250
SO-50 01 May 00:36:59 00:39:21 13° 139° (SE) 00:41:42 436.795
RS-15 01 May 00:42:34 00:49:54 19° 158° (SSE) 00:57:20 29.354- 29.394
BEESAT 3 01 May 00:45:53 00:49:40 52° 237° (WSW) 00:53:27 437.485
BUGSAT 1 01 May 00:46:51 00:50:40 36° 278° (W) 00:54:37 437.445
POLYITAN 1 01 May 00:49:02 00:49:12 10° 270° (W) 00:49:23 437.675
SPROUT 01 May 00:53:25 00:57:48 75° 255° (WSW) 01:02:08 437.525
BEESAT 2 01 May 00:53:51 00:57:45 65° 61° (ENE) 01:01:40 435.950
YUBILEINY 01 May 00:57:40 01:01:19 13° 120° (ESE) 01:04:56 435.215
DX 1 01 May 01:00:10 01:04:26 46° 80° (E) 01:08:40 434.975-435.025
Oscar 19 01 May 01:04:38 01:09:49 87° 283° (WNW) 01:15:04 437.125/150
ISS 01 May 01:04:40 01:07:57 48° 144° (SE) 01:11:12 437.550
AO-85 01 May 01:04:48 01:07:36 14° 220° (SW) 01:10:28 145.980
AO-7 01 May 01:05:00 01:10:13 18° 128° (SE) 01:15:26 .
50 SAT 01 May 01:06:06 01:09:37 80° 256° (WSW) 01:13:06 437.505
Gurwin Techsat 1B 01 May 01:38:45 01:44:04 73° 282° (WNW) 01:49:28 435.225
Tancredo 1 01 May 01:47:50 01:50:51 39° 315° (NW) 01:53:49 437.200
UKube-1 01 May 01:54:44 01:59:05 61° 254° (WSW) 02:03:22 .
VELOX 1 01 May 01:59:18 02:01:58 16° 245° (WSW) 02:04:36 145.980
SO-50 01 May 02:15:39 02:20:31 89° 121° (ESE) 02:25:17 436.795
BEESAT 2 01 May 02:34:17 02:35:56 12° 225° (SW) 02:37:33 435.950
DX 1 01 May 02:37:35 02:40:13 16° 245° (WSW) 02:42:49 434.975-435.025
ITAMSAT 1 01 May 02:39:20 02:44:31 65° 107° (ESE) 02:49:46 435.822/435.867
ISS 01 May 02:42:02 02:44:10 16° 309° (NW) 02:46:16 437.550
BEESAT 01 May 02:45:48 02:50:13 35° 82° (E) 02:54:36 436.000
YUBILEINY 01 May 02:50:58 02:59:50 72° 99° (E) 03:08:32 435.215
AO-7 01 May 02:53:19 03:01:42 83° 109° (ESE) 03:10:11 .
RS-15 01 May 02:54:43 03:05:32 55° 128° (SE) 03:16:42 29.354- 29.394
JUGNU 01 May 03:02:35 03:03:05 10° 11° (N) 03:03:34 437.505
ITUPSAT 1 01 May 03:28:58 03:33:51 83° 256° (WSW) 03:38:39 437.325
MOZHAYETS 4 01 May 03:39:29 03:44:08 66° 79° (E) 03:48:40
CUTE-I 01 May 04:20:50 04:23:00 12° 120° (ESE) 04:25:10 437.470
ITAMSAT 1 01 May 04:21:46 04:24:24 14° 271° (W) 04:27:04 435.822/435.867
BEESAT 01 May 04:23:58 04:27:46 23° 247° (WSW) 04:31:31 436.000
XW-2C 01 May 04:36:49 04:38:29 12° 114° (ESE) 04:40:08 145.795 - 145.815
LilacSat-2 01 May 04:40:08 04:42:18 14° 113° (ESE) 04:44:28 437.200
CUBESAT XI-V 01 May 04:41:46 04:46:19 50° 81° (E) 04:50:48 437.345
JUGNU 01 May 04:48:33 04:51:13 13° 0° (N) 04:53:52 437.505
YUBILEINY 01 May 04:49:27 04:55:38 22° 260° (W) 05:01:48 435.215
AO-7 01 May 04:49:45 04:55:16 19° 272° (W) 05:00:50 .
NUDT-PHONESAT 01 May 04:56:34 04:58:59 16° 112° (ESE) 05:01:26 437.300
KKS-1 01 May 04:57:36 05:02:11 76° 77° (ENE) 05:06:41 437.445
XW-2F 01 May 04:57:37 05:00:34 21° 111° (ESE) 05:03:32 145.980 - 146.000
RS-15 01 May 05:07:29 05:17:34 42° 288° (WNW) 05:28:05 29.354- 29.394
STARS 01 May 05:17:22 05:21:48 52° 80° (E) 05:26:09 437.465
MOZHAYETS 4 01 May 05:18:50 05:20:40 12° 243° (WSW) 05:22:29
HO-68 01 May 05:20:05 05:24:32 18° 124° (ESE) 05:29:00 435.675
DOVE 4 01 May 05:35:03 05:39:13 78° 282° (WNW) 05:43:35 437.250
NO-84 01 May 05:37:16 05:40:39 76° 47° (NE) 05:44:25 435.350 FM
XW-2D 01 May 05:49:06 05:53:00 79° 280° (W) 05:56:56 145.860 - 145.880
KAITUO 1B 01 May 05:55:22 05:59:13 87° 281° (W) 06:03:07 145.475/437.950
XW-2B 01 May 05:56:12 06:00:03 66° 281° (WNW) 06:03:59 145.730 - 145.750
CUTE-I 01 May 05:56:53 06:02:15 84° 284° (WNW) 06:07:43 437.470
XW-2C 01 May 06:08:29 06:12:13 44° 279° (W) 06:16:00 145.795 - 145.815
LilacSat-2 01 May 06:12:33 06:16:12 38° 278° (W) 06:19:55 437.200
AO-85 01 May 06:17:41 06:18:16 10° 145° (SE) 06:18:50 145.980
SRMSAT 01 May 06:20:00 06:21:58 12° 7° (N) 06:23:56 437.500
CUBESAT XI-V 01 May 06:20:30 06:23:14 16° 245° (WSW) 06:25:57 437.345
NUDT-PHONESAT 01 May 06:29:13 06:32:37 31° 277° (W) 06:36:04 437.300
XW-2F 01 May 06:31:20 06:34:33 24° 275° (W) 06:37:47 145.980 - 146.000
O/OREOS (USA 219) 01 May 06:34:15 06:38:24 32° 117° (ESE) 06:42:30 437.305
KKS-1 01 May 06:37:21 06:38:03 10° 242° (WSW) 06:38:46 437.445
JUGNU 01 May 06:38:27 06:39:20 10° 350° (N) 06:40:14 437.505
UWE-3 01 May 06:44:12 06:47:02 16° 115° (ESE) 06:49:54 435.000/436.395/437.385
CUTE 1.7 + AOD 2 01 May 06:50:20 06:54:34 61° 105° (ESE) 06:58:50 437.475
STARS 01 May 06:55:15 06:57:39 14° 244° (WSW) 07:00:02 437.465
STRAND 1 01 May 07:01:06 07:05:35 28° 84° (E) 07:09:59 437.568
SEEDS 01 May 07:02:02 07:06:09 52° 105° (ESE) 07:10:19 437.485
XW-2A 01 May 07:03:29 07:06:57 83° 283° (WNW) 07:10:29 145.665 - 145.685
HO-68 01 May 07:04:04 07:11:18 87° 286° (WNW) 07:18:36 435.675
CUBEBUG 2 01 May 07:04:44 07:09:03 42° 108° (ESE) 07:13:33 437.445
NO-84 01 May 07:16:19 07:18:44 16° 207° (SSW) 07:21:18 435.350 FM
ZACube-1 01 May 07:28:33 07:32:23 27° 111° (ESE) 07:36:18 437.345
AO-73 01 May 07:32:46 07:36:36 27° 111° (ESE) 07:40:30 145.935
Oscar 11 01 May 07:43:08 07:46:50 27° 110° (ESE) 07:50:35 .
AO-85 01 May 07:54:46 08:00:00 53° 125° (SE) 08:04:56 145.980
AAUSAT CUBESAT 2 01 May 07:56:37 08:00:47 76° 280° (W) 08:05:00 437.432
M-CUBED/EXP-1 PRIME 01 May 08:02:59 08:06:59 75° 73° (ENE) 08:11:16 437.505
DELFI C3 01 May 08:03:54 08:05:16 12° 115° (ESE) 08:06:38 145.870
SRMSAT 01 May 08:07:47 08:10:15 13° 357° (N) 08:12:43 437.500
O/OREOS (USA 219) 01 May 08:14:05 08:17:34 22° 281° (WNW) 08:21:03 437.305
UWE-3 01 May 08:18:33 08:23:00 49° 279° (W) 08:27:36 435.000/436.395/437.385
CUTE 1.7 + AOD 2 01 May 08:30:15 08:30:45 10° 270° (W) 08:31:15 437.475
STRAND 1 01 May 08:40:07 08:44:42 32° 248° (WSW) 08:49:14 437.568
SEEDS 01 May 08:40:35 08:42:07 12° 271° (W) 08:43:40 437.485
CUBEBUG 2 01 May 08:42:46 08:45:51 18° 272° (W) 08:49:01 437.445
HO-68 01 May 08:56:36 08:59:53 13° 269° (W) 09:03:11 435.675
BEESAT 3 01 May 09:04:07 09:07:48 44° 124° (SE) 09:11:29 437.485
ZACube-1 01 May 09:04:39 09:08:32 27° 275° (W) 09:12:30 437.345
AO-73 01 May 09:08:51 09:12:43 27° 275° (W) 09:16:40 145.935
OBJECT BX 01 May 09:10:35 09:14:13 54° 105° (ESE) 09:17:54 145.990 - 145.960
BEESAT 2 01 May 09:13:35 09:16:40 22° 130° (SE) 09:19:44 435.950
Oscar 11 01 May 09:19:20 09:22:53 24° 275° (W) 09:26:29 .
FO-29 01 May 09:25:30 09:31:38 25° 90° (E) 09:37:21 435.910
DELFI C3 01 May 09:35:41 09:39:34 50° 279° (W) 09:43:27 145.870
AO-85 01 May 09:36:23 09:39:59 19° 287° (WNW) 09:43:27 145.980
TIGRISAT 01 May 09:39:41 09:43:32 25° 86° (E) 09:47:17 435.000
PRISM 01 May 09:42:36 09:46:33 41° 81° (E) 09:50:28 437.425
ESTCUBE 1 01 May 09:49:13 09:51:34 14° 116° (ESE) 09:53:55 437.505/2401.250
LO-87 01 May 10:00:03 10:03:05 26° 109° (ESE) 10:06:09 145.935 - 145.965
UNISAT 6 01 May 10:01:46 10:06:20 46° 81° (E) 10:10:44 437.425
BEESAT 3 01 May 10:43:17 10:44:57 13° 289° (WNW) 10:46:38 437.485
BEESAT 2 01 May 10:51:03 10:54:24 28° 294° (WNW) 10:57:44 435.950
POLYITAN 1 01 May 10:57:38 10:59:13 12° 89° (E) 11:00:47 437.675
QB50P2 01 May 11:03:36 11:06:12 15° 88° (E) 11:08:46 145.880/145.840
FO-29 01 May 11:09:22 11:17:07 62° 251° (WSW) 11:24:11 435.910
TIGRISAT 01 May 11:16:04 11:20:10 30° 249° (WSW) 11:24:10 435.000
VELOX 1 01 May 11:17:01 11:20:58 33° 110° (ESE) 11:24:58 145.980
PRISM 01 May 11:19:02 11:21:27 15° 246° (WSW) 11:23:53 437.425
NANOSAT C BR1 01 May 11:20:21 11:23:34 20° 86° (E) 11:26:44 145.865
ESTCUBE 1 01 May 11:23:25 11:27:52 54° 280° (W) 11:32:21 437.505/2401.250
AIST 2D 01 May 11:31:45 11:35:19 63° 79° (E) 11:38:48 435.315
LO-87 01 May 11:34:13 11:36:31 16° 274° (W) 11:38:51 145.935 - 145.965
50 SAT 01 May 11:37:16 11:40:09 25° 109° (ESE) 11:43:06 437.505
UNISAT 6 01 May 11:39:34 11:42:35 17° 245° (WSW) 11:45:32 437.425
SPROUT 01 May 11:44:27 11:48:42 63° 106° (ESE) 11:53:01 437.525
DUCHIFAT 1 01 May 11:46:59 11:50:59 36° 82° (E) 11:54:55 145.980
EO-79 01 May 11:50:21 11:54:36 49° 80° (E) 11:58:45 145.935-145.965
DX 1 01 May 11:53:55 11:57:46 31° 110° (ESE) 12:01:40 434.975-435.025
PCSat 01 May 12:11:56 12:16:37 31° 72° (ENE) 12:21:20 145.827
NO-84 01 May 12:12:19 12:16:09 30° 145° (SE) 12:20:05 435.350 FM
BUGSAT 1 01 May 12:30:05 12:34:04 35° 82° (E) 12:37:57 437.445
POLYITAN 1 01 May 12:31:03 12:35:18 54° 254° (WSW) 12:39:29 437.675
QB50P2 01 May 12:38:03 12:42:09 41° 252° (WSW) 12:46:11 145.880/145.840
UKube-1 01 May 12:46:51 12:51:11 88° 111° (ESE) 12:55:35 .
VELOX 1 01 May 12:54:12 12:57:27 20° 274° (W) 13:00:45 145.980
NANOSAT C BR1 01 May 12:55:26 12:59:18 31° 251° (WSW) 13:03:04 145.865
FO-29 01 May 12:57:45 13:00:26 12° 232° (SW) 13:03:05 435.910
50 SAT 01 May 13:11:01 13:13:05 15° 274° (W) 13:15:11 437.505
Oscar 19 01 May 13:18:16 13:23:05 38° 82° (E) 13:27:51 437.125/150
DUCHIFAT 1 01 May 13:23:24 13:26:21 18° 247° (WSW) 13:29:16 145.980
EO-79 01 May 13:27:38 13:29:52 14° 245° (WSW) 13:32:05 145.935-145.965
DX 1 01 May 13:30:41 13:33:58 21° 275° (W) 13:37:17 434.975-435.025
NO-84 01 May 13:49:43 13:53:54 43° 309° (NW) 13:58:07 435.350 FM
BEESAT 01 May 13:50:18 13:54:36 34° 111° (ESE) 13:58:58 436.000
PCSat 01 May 13:54:58 13:59:53 35° 235° (SW) 14:04:51 145.827
Gurwin Techsat 1B 01 May 13:56:52 14:02:08 52° 80° (E) 14:07:20 435.225
YUBILEINY 01 May 13:57:42 14:02:20 15° 103° (ESE) 14:06:58 435.215
BUGSAT 1 01 May 14:06:06 14:09:07 19° 247° (WSW) 14:12:07 437.445
ITUPSAT 1 01 May 14:33:29 14:38:20 88° 283° (WNW) 14:43:16 437.325
MOZHAYETS 4 01 May 14:39:09 14:43:40 50° 107° (ESE) 14:48:14
ITAMSAT 1 01 May 14:54:37 14:59:02 26° 84° (E) 15:03:23 435.822/435.867
AO-7 01 May 14:57:50 15:05:00 30° 83° (E) 15:12:03 .
Oscar 19 01 May 14:58:02 15:02:09 24° 246° (WSW) 15:06:15 437.125/150
BEESAT 01 May 15:28:32 15:32:23 24° 275° (W) 15:36:17 436.000
Gurwin Techsat 1B 01 May 15:37:54 15:41:37 19° 244° (WSW) 15:45:19 435.225
CUBESAT XI-V 01 May 15:43:04 15:47:25 40° 108° (ESE) 15:51:48 437.345
YUBILEINY 01 May 15:48:51 15:57:43 87° 85° (E) 16:06:41 435.215
KKS-1 01 May 15:53:33 15:57:53 55° 107° (ESE) 16:02:19 437.445
STARS 01 May 16:12:03 16:16:06 36° 109° (ESE) 16:20:12 437.465
MOZHAYETS 4 01 May 16:18:26 16:21:05 15° 272° (W) 16:23:43
